Regional Weather Roundup
Issued by NWS Sioux Falls, SD

Home | Current Version | Previous Version | Text Only | Print | Product List | Glossary On
Versions: 1 2 3 4 5 6 7 8 9 10 11 12 13 14 15 16 17 18 19 20 21 22 23 24 25 26 27 28 29 30 31 32 33 34 35 36 37 38 39 40 41 42 43 44 45 46 47 48 49 50
000
ASUS43 KFSD 140410
RWRFSD

WEATHER ROUNDUP FOR SE SOUTH DAKOTA/SW MINNESOTA/NW IOWA
NATIONAL WEATHER SERVICE SIOUX FALLS SD
1000 PM CST SAT FEB 13 2016

NOTE: "FAIR" INDICATES FEW OR NO CLOUDS BELOW 12,000 FEET WITH NO
SIGNIFICANT WEATHER AND OR OBSTRUCTIONS TO VISIBILITY.


SDZ038>040-050-052>070-140500-
SOUTHEAST SOUTH DAKOTA

CITY           SKY/WX    TMP DP  RH WIND       PRES   REMARKS
BROOKINGS      LGT SNOW  10   6  84 SE22G28   30.06F FOG     WCI -10
CHAMBERLAIN    CLOUDY    22  15  74 SE16      29.88F WCI   8
HURON          CLOUDY    14   7  73 S18G31    30.07R WCI  -3
MADISON        CLOUDY    10  10 100 S22G28    30.03F FOG     WCI  -9
MITCHELL       CLOUDY    14   8  77 SE21G33   30.00F WCI  -4
SIOUX FALLS    CLOUDY    13   6  74 SE16      30.10F WCI  -3
WINNER         CLOUDY    29  21  72 S21G28    29.84F WCI  16
YANKTON        CLOUDY    16   7  67 SE22      30.07F WCI  -2
$$

MNZ071-072-080-081-089-090-097-098-140500-
SOUTHWEST MINNESOTA

CITY           SKY/WX    TMP DP  RH WIND       PRES   REMARKS
FAIRMONT       CLOUDY    10   1  67 SE18      30.25F WCI  -8
JACKSON        CLOUDY    10   5  79 SE16G22   30.21F WCI  -7
LUVERNE        LGT SNOW  12   9  85 SE16      30.14F WCI  -4
MARSHALL       FLURRIES  10   4  76 S20G28    30.18F WCI  -9
MONTEVIDEO     CLOUDY    10   3  72 S18       30.22R WCI  -8
PIPESTONE      LGT SNOW  10   3  72 S16       30.10S WCI  -7
REDWOOD FALLS  CLOUDY    10   3  73 SE18      30.23F WCI  -8
TRACY          CLOUDY    11   6  80 S18       30.18F WCI  -7
WINDOM         CLOUDY     9   3  78 SE17      30.19F WCI -10
WORTHINGTON    CLOUDY     9   3  78 SE18      30.16F WCI -10
$$

IAZ001>003-012>014-020>022-031-032-NEZ013-014-SDZ071-140500-
NORTHWEST IOWA

CITY           SKY/WX    TMP DP  RH WIND       PRES   REMARKS
CHEROKEE       LGT SNOW  11   9  89 SE14G20   30.20F WCI  -4
DENISON        CLOUDY    14  10  85 SE10G16   30.20F WCI   1
ESTHERVILLE    LGT SNOW   9   5  84 SE23      30.23F FOG     WCI -11
LE MARS        CLOUDY    14  10  85 SE10G17   30.19F WCI   1
ORANGE CITY    CLOUDY    10   9  92 SE9G17    30.16S FOG     WCI  -2
SHELDON        LGT SNOW  10   9  92 SE17G30   30.14F VSB 1   WCI  -7
SIOUX CITY     CLOUDY    18   7  62 SE17      30.17F WCI   3
SPENCER        LGT SNOW  10   5  80 SE17      30.22F VSB 1   WCI  -8
STORM LAKE     CLOUDY    10   9  92 SE20      30.19F FOG     WCI  -8
$$

ABBREVIATIONS USED IN REMARKS
   TC - TEMPERATURE IN CELSIUS
  WCI - WIND CHILL INDEX
   HX - HEAT INDEX
  VSB - VISIBILITY




USA.gov is the U.S. government's official web portal to all federal, state and local government web resources and services.